Location: Passau
(48.5830°N, 13.4830°E)
Time: 03:29:52
(UTC+02:00)

ISS - Visible Passes

Search period start: 20 July 2024 00:00
Search period end: 30 July 2024 00:00
Orbit: 409 x 423 km, 51.6° (Epoch: 19 July)

Date Brightness Start Highest point End Pass type
(mag) Time Alt. Az. Time Alt. Az. Time Alt. Az.
20 Jul -3.9 23:03:36 10° WNW 23:06:55 74° SSW 23:08:05 37° SE visible
21 Jul -3.8 22:15:07 10° WNW 22:18:26 82° NNE 22:21:08 15° ESE visible
21 Jul -2.0 23:52:12 10° W 23:54:00 21° WSW 23:54:00 21° WSW visible
22 Jul -3.4 21:26:35 10° WNW 21:29:54 64° NNE 21:33:11 10° E visible
22 Jul -3.0 23:03:27 10° W 23:06:31 35° SW 23:07:04 33° S visible
23 Jul -3.5 22:14:48 10° WNW 22:18:03 53° SSW 22:20:09 19° SE visible
24 Jul -1.8 23:03:37 10° W 23:05:48 16° SW 23:06:05 16° SW visible
25 Jul -2.3 22:14:34 10° W 22:17:21 25° SW 22:19:11 16° S visible
26 Jul -2.8 21:25:42 10° WNW 21:28:48 38° SSW 21:31:54 10° SE visible
27 Jul -1.2 22:15:12 10° WSW 22:16:19 11° SW 22:17:26 10° SSW visible
28 Jul -1.6 21:25:29 10° W 21:27:48 18° SW 21:30:06 10° S visible
